Location: Gleizolles
(44.4833°N, 6.7667°E)
Time: 16:08:21
(UTC+00:00)

Altair - Pass Details

Date: 26 June 2024
Orbit: 1502 x 1681 km, 47.2° (Epoch: 13 July)

Event Time Altitude Azimuth Distance (km) Brightness Sun altitude
Rises 01:42:30 0° 254° (WSW) 4,634 - -16.3°
Exits shadow 01:44:30 - 255° (WSW) 3,984 9.3 -16.1°
Reaches altitude 10° 01:45:30 10° 255° (WSW) 3,661 9.1 -16.0°
Maximum altitude 01:54:45 84° 345° (NNW) 1,545 7.5 -15.1°
Drops below altitude 10° 02:04:20 10° 74° (ENE) 3,776 10.3 -14.2°
Sets 02:07:28 0° 76° (ENE) 4,786 10.9 -13.8°
